Regional Weather Roundup
Issued by NWS

Home | Current Version | Previous Version | Text Only | Print | Product List | Glossary On
Versions: 1 2 3 4 5 6 7 8 9 10 11 12 13 14 15 16 17 18 19 20 21 22 23 24 25 26 27 28 29 30 31 32 33 34 35 36 37 38 39 40 41 42 43 44 45 46 47 48 49 50
833
ASUS44 KLIX 192305
RWRLA
LOUISIANA WEATHER ROUNDUP
NATIONAL WEATHER SERVICE NEW ORLEANS LA
600 PM CDT SUN OCT 19 2014

NOTE: "FAIR" INDICATES FEW OR NO CLOUDS BELOW 12,000 FEET WITH NO
      SIGNIFICANT WEATHER AND/OR OBSTRUCTIONS TO VISIBILITY.
      SKY/WX - SKY CONDITION AND SIGNIFICANT WEATHER.
      TMP - AIR TEMPERATURE.    DP   - DEWPOINT TEMPERATURE.
      RH  - RELATIVE HUMIDITY.  PRES - PRESSURE.
      HX  - HEAT INDEX.         WCI  - WIND CHILL INDEX.

*  THESE STATIONS ARE NOT NWS OR FAA STATIONS AND ARE NOT UNDER
   NWS QUALITY CONTROL.

LAZ040-048-061>063-065-066-069-200000-
SOUTHEAST LOUISIANA

CITY           SKY/WX    TMP DP  RH WIND       PRES   REMARKS
N.O. AUDUBON   NOT AVBL
N.O. INTL ARPT PTCLDY    73  54  51 NE6       30.05R
N.O. LAKEFRONT CLEAR     72  56  57 SE5       30.05S
N.O. DOWNTOWN* FAIR      73  52  46 CALM      30.06R
SLIDELL        CLEAR     72  56  57 SW3       30.05R
BATON ROUGE    CLEAR     73  55  53 NE5       30.05R
BOOTHVILLE     CLEAR     73  65  75 NE7       30.04S
BELLE CHASSE   CLEAR     72  58  61 E5        30.04S
BOGALUSA*        N/A     72  49  44 N5        30.07S
NEW ROADS*     FAIR      72  55  54 N3        30.05S
GONZALES*      FAIR      73  59  59 CALM      30.05R
HAMMOND*       CLEAR     73  52  46 CALM      30.07R
HOUMA*         NOT AVBL
PORT FOURCHON* PTCLDY    75  66  73 NE12      30.06R

$$

LAZ041-044-053-054-200000-
SOUTHWEST LOUISIANA

CITY           SKY/WX    TMP DP  RH WIND       PRES   REMARKS
LAKE CHARLES   CLEAR     76  57  51 NE8       30.04R
LAFAYETTE      CLEAR     75  58  55 NE5       30.05R
PATTERSON      NOT AVBL
SALT POINT       N/A     78  64  61 CALM      30.02S
NEW IBERIA     CLEAR     77  59  53 N7        30.05R
CHENAULT AIRPK NOT AVBL

$$

LAZ027-028-200000-
CENTRAL LOUISIANA

CITY           SKY/WX    TMP DP  RH WIND       PRES   REMARKS
FORT POLK      CLEAR     71  56  58 NE5       30.06S
ALEXANDRIA INT CLEAR     72  51  47 NE6       30.05S
ALEXANDRIA     CLEAR     71  56  58 CALM      30.07S

$$

LAZ001-002-200000-
NORTHWEST LOUISIANA

CITY           SKY/WX    TMP DP  RH WIND       PRES   REMARKS
SHREVEPORT     CLEAR     71  49  45 E3        30.07S
BARKSDALE AFB  CLEAR     71  48  43 E3        30.08F
DTN SHREVEPORT CLEAR     70  49  47 CALM      30.08S

$$

LAZ014-016-200000-
NORTHEAST LOUISIANA

CITY           SKY/WX    TMP DP  RH WIND       PRES   REMARKS
MONROE         CLEAR     68  47  46 NE3       30.10S
TALLULAH       CLEAR     68  46  45 NE5       30.08F

$$




USA.gov is the U.S. government's official web portal to all federal, state and local government web resources and services.